Dewpoint
5 5 4 -0 3 2 1 1 4 3 1 0 1 2 2 3 3 4 7 7 5 3 2 0 -5 1 3 1 2 2 3 2 -2 -1 2 1 -0 -1 -1 0 -1 1 4 4 8
2 3 3 -1 1 1 3 -3 -0 2 0 -1 2 3 3 1 3 6 4 7 5 2 1 2 -4 2 3 2 2 1 2 1 -0 0 2 0 -1 -2 -2 -1 1 4 4 4 6
2 2 2 2 1 3 3 2 1 0 -0 0 3 4 3 1 7 3 3 6 5 2 1 5 2 3 2 2 0 2 0 -1 -0 1 0 -1 -1 -2 -2 -2 -2 1 5 7 6
3 3 3 2 2 1 1 2 3 3 3 3 3 3 1 3 3 2 4 6 5 3 0 3 4 2 1 2 -0 -2 -0 0 -2 -2 -1 -2 -2 -3 -2 -3 -3 -2 -0 4 6
2 1 0 1 3 3 4 4 5 2 3 3 2 2 4 7 3 -2 3 5 5 2 -1 4 3 2 0 -1 -1 -1 -2 -3 -3 -3 -3 -3 -4 -4 -4 -4 -4 -2 1 0 1
-2 -3 -2 -1 -0 1 2 3 4 5 4 3 5 4 6 5 -1 -2 -4 1 3 1 -2 4 2 1 -1 -2 -2 -2 -3 -4 -4 -4 -3 -3 -6 -6 -5 -5 -4 -2 -2 -1 -2
-1 -2 -2 -2 -1 1 0 3 3 5 4 6 5 5 5 2 -2 -2 -2 -2 1 -2 -2 3 1 -2 -3 -4 -4 -4 -3 -4 -4 -5 -4 -5 -5 -5 -7 -6 -7 -8 -7 -5 -4
-2 -2 -3 -2 -2 -1 -1 0 2 2 5 4 4 5 4 1 -2 -3 -1 -1 -2 -1 1 2 0 -3 -5 -4 -5 -4 -3 -2 -3 -4 -4 -5 -2 -6 -8 -8 -9 -11 -10 -10 -6
-4 -4 -4 -1 -2 -1 -3 -3 -3 -2 -2 -1 -0 -0 -3 2 -2 -3 -2 -1 1 1 -0 1 -3 -4 -6 -4 -3 -4 -2 -3 -2 -3 -3 -6 -8 -7 -8 -9 -9 -8 -8 -7 -6
-4 -4 -4 -2 -1 -1 -1 -0 -1 -1 -1 1 -0 -1 -2 -1 -1 -2 -2 -1 0 -2 -3 -3 -4 -4 -3 -2 -0 -3 -4 -4 -2 -3 -3 -3 -4 -6 -9 -9 -9 -9 -7 -7 -5
-6 -4 -5 -3 -2 -2 -2 0 1 1 0 -0 0 -1 -1 -1 -2 -2 -2 -2 -2 -4 -4 -4 -1 -3 -5 -4 -5 -7 -6 -5 -1 -3 -5 -4 -3 -5 -6 -7 -8 -8 -7 -7 -4
-8 -6 -4 -4 -4 -3 -3 -0 1 -1 -1 -1 -1 -1 -1 -0 -1 -2 -2 -2 -4 -3 -4 -1 0 -1 -2 -3 -5 -3 -7 -4 -4 -4 -7 -7 -7 -7 -6 -6 -7 -8 -7 -3 -4
-11 -8 -5 -4 -4 -4 -3 2 -3 -4 -2 -3 -2 -2 -2 -1 -2 -2 -2 -3 -4 -3 -4 0 0 -2 -4 -2 -4 -2 -6 -4 -5 -4 -5 -5 -7 -7 -4 -2 -3 -6 -7 -3 -4
-9 -10 -8 -6 -3 -2 -1 -3 -5 -5 0 -2 -2 -4 -3 -3 -5 -3 -2 -3 -1 0 -1 -0 -1 -3 -3 -1 -1 -5 -2 -3 -3 -7 -7 -7 -8 -13 -4 -2 -2 -2 -3 -3 -3
-8 -10 -9 -8 -3 -4 -3 -6 -5 -3 -2 -6 -3 -4 -3 -3 -5 -4 -2 -3 -1 -0 -3 -0 1 0 -0 -0 -1 -2 -2 -2 -1 -1 -5 -6 -2 -8 -3 -2 -2 -2 -2 -2 -2
-8 -6 -7 -8 -8 -8 -8 -7 -3 -1 -4 -2 -3 -3 -4 -4 -4 -5 -4 -3 -2 -1 0 1 -0 0 -1 -2 -2 -2 -1 2 2 -1 -3 -4 -2 -3 -2 -5 -3 -2 -1 -2 -1
-6 -5 -6 -5 -5 -6 -7 -4 1 -1 -4 -4 -2 -3 -3 -3 -4 -4 -3 -4 -1 -4 -1 -1 0 -0 -0 -1 -1 -0 -2 0 0 -1 -1 0 -1 -1 -3 -3 -3 -2 -1 -1 -1
-9 -4 -8 -7 -4 -3 -4 -3 -1 -3 -1 -3 -2 -4 -4 -5 -4 -5 -5 -4 -4 -2 0 -2 -3 1 0 0 -1 1 -3 -0 -5 3 0 -4 -2 -2 -4 -3 -2 -2 -1 -0 0
-6 -3 -7 -8 -6 -2 1 1 0 -0 -1 -0 -2 -4 -4 -5 -5 -4 -2 -3 -4 -4 -1 2 2 1 0 -0 -2 -3 -4 -3 -2 -3 -4 -4 -7 -7 -6 -4 -2 -2 -0 -0 -0
-1 -0 -6 -2 -1 1 -0 2 0 -0 -1 -1 -4 -6 -4 -6 -6 -5 -2 -2 -3 -6 -7 -4 0 0 1 0 -1 -3 -6 -5 -2 -7 -4 -3 -5 -1 -3 -3 -1 -0 -0 -1 -1
1 -1 -3 -3 -0 -3 1 -0 -1 -3 -2 -2 -2 -5 -6 -7 -7 -4 -2 -2 -3 -4 -6 -9 -5 -0 -0 1 -2 -3 -3 -3 -5 -4 -5 -8 -3 -4 -1 -3 -1 -1 -2 -1 -1
-1 -1 -3 -3 -3 -1 -0 -1 -2 -3 -4 -4 -4 -4 -5 -6 -5 -4 -1 -1 -2 -3 -6 -7 -4 -1 -4 -3 -4 -3 -4 -6 -4 -10 -6 -8 -5 -8 -5 -3 -2 -4 -4 -5 -4
0 0 -1 -6 -4 -2 -1 -3 -4 -4 -5 -4 -6 -5 -7 -7 -6 -3 -1 -1 -2 -3 -5 -6 -7 -4 -6 -5 -5 -3 -3 -4 -5 -4 -5 -7 -9 -7 -4 -4 -5 -5 -4 -4 -4
-2 -2 -2 -4 -3 -4 -5 -4 -5 -5 -5 -5 -7 -8 -8 -8 -7 -4 -2 -1 -2 -3 -4 -5 -7 -10 -7 -7 -3 -7 -4 -3 -5 -2 -5 -7 -10 -6 -4 -4 -4 -3 -3 -3 -3
-4 -0 -0 -2 -1 -3 -6 -5 -6 -5 -7 -7 -8 -8 -9 -9 -9 -6 -4 -3 -3 -3 -4 -6 -11 -7 -7 -8 -7 -7 -7 -4 -3 -4 -7 -11 -9 -10 -5 -4 -3 -2 -3 -3 -3
-6 -2 1 -1 -0 -1 -1 -3 -2 -4 -3 -4 -6 -7 -7 -10 -10 -9 -8 -6 -7 -2 -4 -4 -12 -3 -4 -3 -6 -6 -8 -5 -4 -5 -5 -6 -5 -7 -4 -2 -3 -3 -3 -4 -4
-4 -2 -0 0 -2 -1 -0 -2 -2 -3 -3 -3 -3 -2 -4 -3 -3 -3 -3 -5 -7 -5 -4 -3 -4 -0 0 1 1 3 1 -4 -7 -6 -5 -4 -6 -3 -2 -3 -3 -3 -3 -4 -4
Wind_Speed
18 14 8 3 3 3 4 8 9 10 12 14 17 15 13 13 15 15 16 9 11 10 5 10 11 13 13 11 7 4 4 3 5 6 4 8 4 4 5 9 6 5 7 4 23
20 20 10 2 3 4 2 5 9 9 9 12 15 14 13 12 13 16 13 10 11 9 6 9 12 13 6 6 6 4 4 8 2 1 4 6 7 8 5 6 5 8 7 13 19
20 21 17 10 6 6 3 1 4 7 9 12 13 13 12 12 5 13 12 13 9 8 7 10 9 10 3 7 5 6 5 5 2 0 2 5 6 5 13 3 7 12 17 18 18
19 20 17 14 9 8 4 2 2 4 7 11 13 12 12 13 6 3 10 15 11 11 10 12 7 7 3 5 8 5 1 4 4 2 6 7 7 5 5 5 6 10 14 16 17
19 19 21 22 16 12 7 4 2 4 5 10 11 13 16 11 3 4 5 11 13 10 14 11 9 8 3 6 8 3 3 2 3 4 7 7 3 4 7 9 7 15 16 14 14
12 14 15 18 19 18 14 7 3 9 8 11 12 16 16 6 3 1 2 10 11 12 17 14 7 5 3 6 7 9 6 4 1 3 3 4 2 2 9 13 14 15 15 14 13
7 9 11 11 9 12 19 21 9 11 8 11 14 18 15 10 4 3 1 8 11 14 17 16 2 2 2 3 7 16 6 2 1 2 1 4 3 7 9 17 15 15 14 14 14
6 6 8 7 4 3 8 20 18 17 10 10 7 10 5 9 7 5 7 9 11 11 11 11 3 5 3 4 5 4 5 4 2 2 1 4 7 1 14 19 15 13 14 15 14
5 5 4 4 5 4 4 4 5 11 6 8 4 4 2 14 2 7 11 10 12 10 8 8 4 2 3 5 5 5 4 3 3 4 1 2 5 2 17 16 14 15 14 14 14
6 6 4 2 4 4 2 3 3 5 2 4 5 3 3 5 6 7 9 10 11 10 9 6 2 3 4 5 6 4 3 2 4 4 2 2 8 4 13 14 15 17 16 15 15
5 5 4 5 4 5 5 5 4 2 6 1 4 4 5 5 8 6 5 15 10 6 3 2 6 3 3 4 4 1 2 3 1 1 2 6 6 9 13 13 15 15 13 14 17
4 4 3 7 8 8 7 5 7 2 3 3 6 7 8 3 6 5 8 7 5 3 3 6 3 2 2 1 2 2 4 2 1 1 2 2 10 9 7 10 21 21 14 19 20
4 3 2 2 3 5 6 5 1 3 1 5 4 5 4 7 4 6 6 5 4 3 3 6 1 3 1 6 4 3 3 5 3 2 0 4 8 3 2 2 4 11 17 21 21
4 5 5 3 2 5 4 5 5 3 4 8 7 6 4 4 4 4 3 4 4 6 5 5 4 1 4 5 1 2 2 2 6 4 3 3 4 5 1 2 3 7 18 22 19
7 3 5 6 4 6 4 4 3 2 5 6 4 3 5 4 4 3 5 3 4 3 4 2 3 5 6 1 1 2 2 3 3 4 4 1 3 7 1 4 6 10 17 19 17
10 14 3 4 6 6 5 3 1 5 1 4 2 2 3 4 3 3 4 8 6 6 7 3 2 3 2 1 2 2 4 7 5 4 2 1 5 6 3 3 2 6 15 19 18
5 14 4 1 2 4 2 2 5 6 4 3 2 2 3 3 3 3 4 5 2 5 3 5 4 3 3 3 4 6 6 3 3 3 5 2 2 9 4 1 2 11 18 20 19
1 8 9 3 1 2 3 4 7 3 1 2 2 1 3 1 2 2 3 2 4 4 4 5 4 2 4 3 4 2 4 5 6 3 4 2 5 6 4 0 2 6 19 20 19
1 9 12 8 6 4 1 5 4 2 1 3 2 3 2 1 3 4 3 1 1 2 4 4 2 2 2 2 2 3 1 2 6 3 3 2 7 7 2 2 1 7 18 18 16
3 2 12 8 6 3 5 2 2 3 5 2 0 1 3 2 2 3 2 2 1 0 1 4 5 1 1 1 1 1 2 3 3 2 4 5 5 5 4 3 2 5 12 12 11
7 3 15 8 3 7 4 2 2 5 4 2 4 2 1 2 2 2 2 2 3 4 3 1 3 2 2 4 6 1 0 3 3 4 4 1 6 5 3 5 6 5 7 7 8
4 4 14 9 4 3 3 4 3 1 4 2 2 4 4 6 4 2 3 1 3 2 2 1 4 3 1 1 1 1 2 4 4 4 0 3 6 4 4 3 8 10 12 11 8
3 3 10 9 4 4 1 1 0 1 1 2 2 3 3 3 2 3 3 2 5 4 2 1 1 2 5 4 3 3 4 4 4 2 6 5 5 2 6 10 10 13 11 11 7
3 3 6 8 6 5 2 3 2 2 2 2 1 1 3 3 4 2 1 1 3 2 2 2 2 4 5 2 4 3 4 4 4 3 3 6 2 4 5 6 8 11 12 12 12
5 2 3 3 4 3 3 1 1 3 1 2 3 2 1 1 2 3 2 0 1 1 2 3 4 2 4 6 4 4 5 8 9 7 7 3 7 7 6 7 10 11 11 11 12
3 2 1 1 4 4 4 3 3 2 1 2 1 2 1 1 1 5 3 3 3 1 1 2 1 2 4 3 5 6 8 10 11 6 10 6 10 4 10 15 13 11 11 11 10
4 2 1 1 1 2 2 2 3 3 3 3 4 1 1 3 1 0 0 0 0 5 3 2 3 2 3 4 5 8 7 11 6 4 8 9 8 10 5 11 14 12 9 8 7
Wind_Direction
7 353 319 271 310 306 275 231 222 223 217 218 221 218 217 218 214 217 232 222 221 217 211 193 194 182 179 177 177 176 80 183 199 170 209 150 121 122 138 137 116 133 154 185 178
23 26 29 105 346 339 303 236 231 227 223 215 212 210 211 212 211 223 222 212 222 208 205 191 186 183 179 188 182 134 135 207 215 225 183 139 134 142 138 130 90 126 144 151 173
40 42 42 45 37 14 27 246 213 218 208 199 200 201 206 196 177 245 229 220 209 197 203 200 173 174 191 176 180 163 181 192 200 148 162 126 124 143 139 226 186 180 160 163 176
44 48 44 42 37 22 7 335 239 197 190 184 190 195 189 170 178 191 208 203 205 196 206 197 187 169 194 172 196 143 236 192 166 102 133 141 147 132 178 177 189 197 176 177 189
49 53 55 50 44 37 35 14 75 210 194 183 183 182 170 189 186 89 122 178 195 197 201 191 180 180 193 196 158 173 149 107 116 120 119 138 147 169 158 152 149 167 179 190 199
42 38 46 54 46 55 33 352 188 135 140 167 163 171 169 189 180 103 218 196 195 202 193 187 177 202 302 207 164 183 130 121 157 144 127 140 201 209 190 169 161 177 193 201 209
6 12 15 45 52 52 32 51 109 173 100 142 162 171 182 183 191 209 176 189 197 193 189 192 151 231 222 136 140 134 94 47 261 204 156 149 244 232 188 185 182 192 204 207 214
331 344 357 21 40 18 51 56 71 80 114 113 132 170 209 178 205 219 166 170 172 188 186 187 205 258 231 129 93 83 69 123 274 192 197 142 262 277 185 182 197 201 196 200 203
307 322 351 356 38 28 8 40 71 71 90 112 98 179 186 196 198 173 157 154 154 156 156 174 208 217 124 96 53 14 166 180 306 222 128 173 258 276 183 194 205 204 201 200 195
327 291 291 327 355 27 355 30 77 96 339 360 59 71 139 162 144 148 142 155 151 150 157 175 149 70 38 74 182 180 172 199 210 228 180 215 261 297 195 207 219 213 215 211 199
343 312 259 233 251 295 310 323 357 51 97 257 349 31 113 132 153 150 191 153 163 159 131 134 76 141 181 174 137 182 183 174 295 218 164 243 272 250 229 235 234 224 211 204 186
338 335 306 251 251 262 261 284 317 42 340 60 100 110 115 101 120 133 145 166 153 146 116 37 101 234 290 327 45 25 173 158 338 105 107 344 272 260 238 238 233 222 198 178 178
294 270 315 324 241 244 247 281 301 318 94 13 58 93 83 123 100 158 191 191 140 87 91 119 165 316 119 46 101 58 185 168 174 104 316 328 294 298 29 109 135 211 213 186 186
337 254 225 232 229 203 231 237 287 303 71 329 358 22 48 94 75 135 159 173 55 131 114 90 326 77 86 81 350 139 302 107 109 95 217 60 268 291 177 120 113 139 171 179 182
47 355 230 221 254 237 274 278 291 185 64 294 333 54 39 76 128 49 64 126 106 93 103 228 28 66 76 93 307 140 27 61 89 98 59 328 72 268 320 211 216 184 177 182 186
47 17 265 226 253 273 297 294 158 44 317 348 328 1 57 32 40 52 89 84 112 71 36 102 69 60 103 62 66 115 65 42 54 71 22 270 129 280 219 210 190 193 187 188 189
19 19 31 184 203 243 253 189 35 83 296 332 1 24 82 17 43 56 31 25 116 89 20 13 354 358 53 80 26 66 57 6 357 4 216 284 49 246 252 303 244 191 186 187 191
302 27 32 54 207 103 129 56 69 212 265 310 310 359 92 24 37 56 81 48 32 68 107 136 330 43 353 61 163 119 143 155 203 197 254 45 235 258 221 180 304 213 188 185 190
33 33 29 56 74 75 55 51 184 231 338 350 324 83 27 54 126 92 62 163 265 5 131 135 18 319 43 24 82 165 204 160 104 10 43 239 286 303 224 326 346 188 184 188 194
9 16 32 34 32 41 77 82 354 349 339 336 327 176 149 189 122 107 164 253 271 264 239 190 88 356 339 24 52 150 161 63 0 168 253 292 283 241 247 195 185 153 181 196 217
31 51 356 345 18 69 104 139 23 357 353 338 352 344 104 143 126 110 179 328 5 326 355 104 94 278 51 202 179 101 235 65 125 146 178 279 264 218 224 185 188 178 193 220 244
45 45 6 353 31 38 122 169 168 329 7 0 62 17 20 12 29 79 154 360 351 319 103 14 118 150 177 305 360 209 201 151 127 224 136 143 275 332 152 113 140 91 102 94 61
28 30 13 25 65 3 339 44 34 82 144 101 63 74 23 56 67 74 60 357 13 38 72 45 5 56 351 356 357 218 199 162 123 100 204 144 259 27 99 87 99 106 96 77 54
28 17 34 48 82 122 65 0 353 346 331 320 207 142 121 56 32 115 70 347 18 73 78 90 115 163 188 200 130 207 207 198 137 124 183 230 250 198 180 132 107 102 92 77 57
36 95 47 330 359 81 130 113 16 339 356 328 353 31 55 98 52 146 154 174 13 49 75 113 198 150 240 231 214 220 194 186 197 197 184 242 209 206 195 153 138 121 101 81 64
67 57 92 37 324 338 338 178 157 201 67 338 19 308 12 160 242 208 155 199 208 343 125 17 286 90 304 303 224 265 236 215 226 224 249 260 264 202 142 138 134 121 103 84 66
45 50 349 40 46 63 252 297 271 169 193 189 166 128 227 183 152 325 202 182 267 152 173 107 119 75 277 359 346 296 236 199 194 212 207 220 236 155 145 140 142 135 122 105 72
Height
1496 1491 1488 1489 1488 1488 1488 1489 1490 1492 1493 1495 1496 1498 1500 1502 1504 1506 1507 1510 1511 1513 1514 1515 1518 1520 1522 1524 1526 1527 1536 1540 1531 1531 1524 1523 1525 1529 1529 1530 1532 1533 1534 1536 1539
1496 1491 1487 1488 1488 1488 1487 1487 1488 1490 1491 1492 1494 1497 1499 1501 1502 1502 1507 1508 1509 1512 1513 1514 1517 1520 1522 1523 1525 1525 1535 1530 1523 1523 1523 1522 1523 1527 1530 1530 1533 1534 1534 1535 1538
1498 1494 1491 1490 1489 1488 1488 1487 1487 1488 1489 1490 1493 1496 1498 1500 1503 1500 1504 1506 1508 1510 1512 1514 1516 1519 1520 1521 1522 1523 1529 1523 1522 1522 1521 1521 1523 1526 1528 1531 1529 1532 1533 1536 1538
1501 1497 1495 1493 1491 1490 1489 1488 1488 1488 1488 1490 1493 1495 1498 1500 1503 1498 1499 1502 1506 1508 1511 1513 1516 1518 1519 1520 1520 1523 1521 1521 1521 1521 1522 1523 1524 1525 1526 1527 1527 1530 1533 1535 1536
1504 1500 1498 1496 1493 1491 1489 1488 1486 1488 1489 1490 1492 1495 1497 1500 1498 1498 1498 1501 1504 1507 1509 1512 1515 1516 1517 1517 1519 1521 1522 1522 1522 1521 1522 1524 1524 1524 1525 1526 1527 1529 1532 1534 1535
1506 1503 1501 1499 1497 1494 1492 1487 1487 1488 1488 1489 1491 1494 1497 1499 1497 1497 1498 1500 1503 1505 1508 1512 1514 1515 1516 1516 1518 1518 1521 1523 1523 1523 1522 1524 1525 1525 1525 1525 1527 1529 1531 1532 1534
1507 1505 1503 1502 1499 1497 1494 1488 1487 1488 1490 1490 1492 1494 1496 1498 1496 1497 1497 1499 1502 1505 1508 1511 1513 1515 1515 1514 1516 1518 1524 1524 1524 1524 1524 1524 1526 1523 1522 1524 1526 1528 1529 1531 1532
1507 1505 1504 1503 1502 1499 1498 1496 1493 1492 1492 1492 1495 1495 1496 1496 1497 1497 1497 1499 1501 1504 1508 1511 1513 1514 1514 1514 1516 1521 1525 1532 1524 1524 1524 1524 1529 1517 1519 1522 1524 1525 1527 1529 1531
1507 1506 1505 1504 1502 1501 1499 1498 1497 1496 1496 1496 1496 1496 1495 1495 1497 1496 1497 1500 1502 1506 1508 1511 1513 1512 1512 1517 1526 1527 1535 1530 1528 1524 1524 1525 1523 1517 1519 1521 1522 1523 1525 1527 1530
1507 1506 1506 1504 1503 1501 1499 1498 1498 1497 1496 1497 1496 1498 1496 1496 1497 1498 1499 1501 1504 1506 1510 1511 1511 1515 1518 1524 1540 1531 1529 1528 1528 1525 1526 1526 1525 1519 1519 1520 1520 1521 1523 1525 1528
1506 1505 1505 1502 1501 1501 1500 1499 1501 1500 1499 1496 1497 1495 1495 1497 1498 1500 1500 1502 1505 1507 1510 1509 1519 1527 1519 1519 1521 1522 1526 1526 1526 1525 1527 1527 1526 1519 1518 1519 1519 1519 1521 1523 1526
1505 1504 1503 1501 1501 1501 1501 1500 1500 1502 1498 1496 1496 1496 1497 1497 1499 1501 1503 1505 1505 1509 1509 1515 1522 1518 1518 1518 1519 1523 1525 1528 1527 1526 1529 1527 1524 1516 1514 1513 1513 1516 1518 1521 1524
1504 1504 1503 1501 1501 1501 1502 1502 1501 1500 1499 1496 1496 1497 1498 1499 1500 1502 1504 1504 1505 1509 1511 1519 1520 1517 1517 1523 1522 1529 1527 1529 1525 1527 1528 1530 1526 1513 1512 1512 1512 1513 1516 1520 1521
1502 1502 1502 1502 1504 1502 1502 1502 1501 1500 1507 1503 1498 1497 1499 1499 1502 1502 1503 1505 1506 1515 1515 1521 1519 1517 1520 1527 1528 1524 1528 1524 1526 1534 1549 1534 1545 1518 1513 1514 1514 1514 1516 1519 1522
1502 1501 1500 1501 1501 1501 1502 1501 1500 1501 1535 1505 1500 1500 1499 1501 1503 1503 1503 1503 1508 1511 1515 1524 1522 1521 1524 1528 1527 1527 1527 1527 1530 1539 1543 1538 1561 1522 1516 1516 1515 1515 1516 1519 1521
1503 1501 1499 1499 1500 1500 1500 1500 1501 1516 1535 1509 1502 1501 1502 1501 1502 1502 1502 1504 1508 1513 1516 1523 1523 1524 1526 1527 1526 1528 1531 1536 1543 1551 1569 1542 1556 1535 1518 1510 1511 1512 1515 1517 1519
1503 1501 1498 1498 1498 1498 1499 1500 1514 1527 1511 1509 1506 1503 1503 1505 1504 1504 1508 1511 1515 1528 1537 1527 1528 1526 1526 1527 1528 1531 1541 1569 1562 1574 1561 1549 1558 1525 1510 1509 1508 1509 1511 1514 1517
1503 1502 1499 1497 1497 1498 1500 1503 1520 1513 1511 1506 1506 1504 1506 1506 1507 1507 1511 1517 1514 1516 1534 1539 1545 1529 1529 1530 1532 1533 1540 1559 1552 1561 1556 1544 1546 1521 1509 1508 1509 1508 1511 1514 1517
1503 1503 1500 1498 1498 1499 1501 1522 1517 1513 1511 1509 1506 1507 1508 1506 1507 1510 1516 1518 1516 1515 1520 1527 1532 1530 1530 1531 1533 1534 1544 1538 1552 1557 1556 1551 1528 1511 1508 1510 1510 1509 1512 1515 1518
1504 1503 1502 1500 1499 1498 1504 1519 1517 1514 1513 1511 1507 1504 1509 1507 1508 1510 1513 1515 1514 1513 1513 1516 1532 1532 1532 1532 1533 1533 1536 1546 1558 1543 1542 1547 1535 1530 1514 1513 1512 1512 1514 1517 1519
1504 1504 1504 1501 1499 1499 1518 1518 1516 1514 1514 1513 1512 1507 1506 1506 1506 1510 1515 1516 1515 1514 1513 1513 1520 1537 1534 1535 1534 1538 1538 1540 1543 1548 1544 1544 1539 1517 1515 1511 1513 1514 1516 1517 1518
1504 1506 1504 1502 1502 1508 1514 1512 1512 1512 1511 1513 1512 1513 1512 1513 1511 1512 1514 1516 1516 1515 1515 1517 1525 1547 1530 1531 1530 1531 1530 1535 1546 1538 1551 1554 1541 1513 1511 1511 1511 1515 1516 1517 1518
1507 1506 1506 1502 1514 1519 1514 1513 1513 1512 1512 1510 1512 1513 1512 1515 1515 1516 1518 1519 1517 1517 1518 1518 1526 1548 1534 1535 1531 1530 1529 1530 1537 1544 1544 1544 1528 1514 1513 1514 1515 1515 1517 1518 1517
1508 1511 1508 1508 1510 1513 1515 1516 1515 1514 1513 1512 1511 1510 1510 1514 1514 1516 1518 1518 1518 1517 1518 1518 1526 1526 1534 1521 1527 1530 1530 1530 1532 1554 1539 1534 1516 1515 1515 1515 1516 1517 1516 1516 1515
1510 1514 1515 1518 1515 1513 1513 1513 1515 1516 1514 1514 1513 1513 1514 1515 1515 1516 1517 1518 1518 1518 1519 1520 1524 1528 1525 1523 1521 1520 1521 1527 1532 1523 1524 1513 1517 1511 1512 1514 1515 1516 1516 1516 1516
1512 1514 1514 1514 1516 1516 1515 1513 1513 1514 1515 1515 1515 1514 1514 1515 1516 1517 1517 1519 1517 1520 1520 1522 1525 1526 1524 1519 1524 1523 1519 1519 1516 1514 1517 1513 1512 1505 1508 1511 1513 1515 1515 1516 1517
1514 1513 1514 1515 1515 1518 1518 1516 1514 1513 1514 1513 1513 1514 1513 1514 1514 1514 1515 1516 1517 1519 1522 1524 1527 1532 1524 1524 1521 1521 1505 1508 1508 1507 1506 1512 1500 1504 1509 1510 1512 1514 1515 1515 1515